WB5OMR-9 Weather Reports


time (UTC)temp
C
wind
direction
speed
KPH
gust
KPH
rain 1hr
cm
rain 24hr
cm
rain mn
cm
humidity
%
barometer
mb
20260901095515 26 90 0.0 0.0 0.00 0.00 0.00 77 1015.9
20260901094514 26 90 0.0 0.0 0.00 0.00 0.00 77 1015.9
20260901093512 26 90 0.0 0.0 0.00 0.00 0.00 77 1015.9
20260901092511 26 135 0.0 0.0 0.00 0.00 0.00 77 1015.9
20260901091510 26 135 0.0 0.0 0.00 0.00 0.00 77 1015.9
20260901090509 26 135 0.0 0.0 0.00 0.00 0.00 77 1015.9
20260901085508 26 135 0.0 0.0 0.00 0.00 0.00 77 1016.3
20260901084507 26 112 0.0 0.0 0.00 0.00 0.00 77 1016.3
20260901083506 26 90 0.0 0.0 0.00 0.00 0.00 77 1015.9
20260901082505 26 135 0.0 0.0 0.00 0.00 0.00 76 1015.9
20260901081504 26 157 0.0 0.0 0.00 0.00 0.00 76 1015.9
20260901080503 26 112 0.0 0.0 0.00 0.00 0.00 76 1015.9
20260901075502 26 135 0.0 0.0 0.00 0.00 0.00 76 1015.9
20260901074501 27 135 0.0 0.0 0.00 0.00 0.00 75 1015.9
20260901073500 27 157 0.0 0.0 0.00 0.00 0.00 75 1015.9
20260901072459 27 157 0.0 0.0 0.00 0.00 0.00 74 1015.9
20260901071458 27 157 0.0 0.0 0.00 0.00 0.00 73 1015.9
20260901070457 27 157 0.0 0.0 0.00 0.00 0.00 73 1015.9
20260901065456 27 157 0.0 0.0 0.00 0.00 0.00 72 1015.9
20260901064455 27 135 0.0 0.0 0.00 0.00 0.00 71 1015.9
20260901063454 27 180 0.0 0.0 0.00 0.00 0.00 70 1015.9
20260901062453 27 135 0.0 0.0 0.00 0.00 0.00 69 1015.9
20260901061410 27 135 0.0 0.0 0.00 0.00 0.00 69 1015.9
20260901060408 28 180 0.0 0.0 0.00 0.00 0.00 68 1015.6
20260901055407 28 157 0.0 0.0 0.00 0.00 0.00 67 1015.6
20260901054405 28 135 0.0 0.0 0.00 0.00 0.00 66 1015.2
20260901053404 28 157 0.0 0.0 0.00 0.00 0.00 65 1015.2
20260901052321 28 135 0.0 0.0 0.00 0.00 0.00 64 1015.2
20260901051238 28 112 0.0 0.0 0.00 0.00 0.00 63 1015.2
20260901050237 29 135 0.0 0.0 0.00 0.00 0.00 63 1015.2
20260901045154 29 112 0.0 0.0 0.00 0.00 0.00 62 1015.2
20260901044110 29 157 0.0 0.0 0.00 0.00 0.00 61 1015.2
20260901043110 30 135 0.0 0.0 0.00 0.00 0.00 60 1014.9
20260901042109 30 135 0.0 0.0 0.00 0.00 0.00 58 1015.2
20260901041108 30 135 0.0 0.0 0.00 0.00 0.00 56 1014.9
20260901040107 30 135 0.0 0.0 0.00 0.00 0.00 56 1014.9
20260901035105 30 135 0.0 0.0 0.00 0.00 0.00 55 1014.9
20260901034104 31 157 0.0 0.0 0.00 0.00 0.00 55 1014.9
20260901033103 31 135 0.0 0.0 0.00 0.00 0.00 54 1014.6
20260901032102 31 157 0.0 0.0 0.00 0.00 0.00 53 1014.6
20260901031019 31 157 0.0 0.0 0.00 0.00 0.00 52 1014.2
20260901025934 31 135 0.0 0.0 0.00 0.00 0.00 51 1013.9
20260901024851 32 135 0.0 0.0 0.00 0.00 0.00 49 1013.2
20260901023850 32 135 0.0 0.0 0.00 0.00 0.00 49 1013.2
20260901022849 32 135 0.0 0.0 0.00 0.00 0.00 48 1014.2
20260901021848 33 135 0.0 0.0 0.00 0.00 0.00 46 1014.6
20260901020846 33 112 0.0 0.0 0.00 0.00 0.00 44 1013.9
20260901015845 33 90 0.0 0.0 0.00 0.00 0.00 43 1013.5
20260901014844 33 90 0.0 0.0 0.00 0.00 0.00 42 1013.5
20260901013843 34 90 0.0 0.0 0.00 0.00 0.00 41 1013.2
20260901012842 34 112 0.0 0.0 0.00 0.00 0.00 40 1013.2
20260901011841 35 112 0.0 0.0 0.00 0.00 0.00 40 1013.2
20260901010839 35 112 0.0 0.0 0.00 0.00 0.00 39 1013.2
20260901005839 35 90 0.0 0.0 0.00 0.00 0.00 38 1013.2
20260901004837 36 112 0.0 0.0 0.00 0.00 0.00 37 1012.9
20260901003836 36 112 0.0 0.0 0.00 0.00 0.00 37 1012.9
20260901002753 36 112 0.0 0.0 0.00 0.00 0.00 36 1012.5
20260901001709 37 112 0.0 0.0 0.00 0.00 0.00 36 1012.5
20260901000709 37 135 0.0 0.0 0.00 0.00 0.00 35 1012.5
20260831235708 37 112 0.0 0.0 0.00 0.00 0.00 34 1012.5
20260831234707 38 45 0.0 0.0 0.00 0.00 0.00 33 1012.5
20260831233706 38 90 0.0 0.0 0.00 0.00 0.00 33 1012.5
20260831232704 38 67 0.0 0.0 0.00 0.00 0.00 32 1012.5
20260831231621 38 135 0.0 0.0 0.00 0.00 0.00 32 1012.5
20260831230620 39 112 0.0 0.0 0.00 0.00 0.00 32 1012.5
20260831225619 38 90 0.0 0.0 0.00 0.00 0.00 32 1012.5
20260831224618 39 112 0.0 0.0 0.00 0.00 0.00 32 1012.9
20260831223617 40 112 0.0 0.0 0.00 0.00 0.00 31 1012.5
20260831222616 40 90 0.0 0.0 0.00 0.00 0.00 31 1012.9
20260831221532 40 45 0.0 0.0 0.00 0.00 0.00 32 1012.9
20260831220531 40 135 0.0 0.0 0.00 0.00 0.00 31 1013.2
20260831215530 40 67 0.0 0.0 0.00 0.00 0.00 32 1013.2
20260831214529 41 157 0.0 0.0 0.00 0.00 0.00 32 1013.2
20260831213445 40 0 0.0 0.0 0.00 0.00 0.00 32 1013.2
20260831212402 40 112 0.0 0.0 0.00 0.00 0.00 32 1013.5
20260831211401 40 157 0.0 0.0 0.00 0.00 0.00 34 1013.5
20260831210400 40 45 0.0 0.0 0.00 0.00 0.00 34 1013.9
20260831205359 39 157 0.0 0.0 0.00 0.00 0.00 35 1014.2
20260831204358 40 112 0.0 0.0 0.00 0.00 0.00 34 1014.2
20260831203357 41 45 0.0 0.0 0.00 0.00 0.00 34 1014.2
20260831202314 41 112 0.0 0.0 0.00 0.00 0.00 34 1014.6
20260831201312 41 157 0.0 0.0 0.00 0.00 0.00 34 1014.9
20260831200311 41 247 0.0 0.0 0.00 0.00 0.00 35 1014.6
20260831195310 40 135 0.0 0.0 0.00 0.00 0.00 35 1014.9
20260831194309 40 67 0.0 0.0 0.00 0.00 0.00 37 1015.2
20260831193308 40 202 0.0 0.0 0.00 0.00 0.00 36 1015.2
20260831192307 40 67 0.0 0.0 0.00 0.00 0.00 38 1015.2
20260831191307 40 180 0.0 0.0 0.00 0.00 0.00 37 1015.6
20260831190305 40 45 0.0 0.0 0.00 0.00 0.00 37 1015.9
20260831185306 40 67 0.0 0.0 0.00 0.00 0.00 38 1015.9
20260831184219 39 135 0.0 0.0 0.00 0.00 0.00 38 1016.6
20260831183218 39 135 0.0 0.0 0.00 0.00 0.00 39 1016.3
20260831182217 38 157 0.0 0.0 0.00 0.00 0.00 39 1015.6
20260831181216 38 157 0.0 0.0 0.00 0.00 0.00 39 1014.9
20260831180214 38 135 0.0 0.0 0.00 0.00 0.00 43 1015.6
20260831175131 37 90 0.0 0.0 0.00 0.00 0.00 44 1015.9
20260831174130 37 135 0.0 0.0 0.00 0.00 0.00 44 1015.9
20260831173129 37 157 0.0 0.0 0.00 0.00 0.00 46 1016.3
20260831172128 36 157 0.0 0.0 0.00 0.00 0.00 47 1016.3
20260831171127 36 157 0.0 0.0 0.00 0.00 0.00 49 1016.3
20260831170124 36 180 0.0 0.0 0.00 0.00 0.00 49 1016.6
20260831165124 36 180 0.0 0.0 0.00 0.00 0.00 50 1016.6
20260831164123 35 135 0.0 0.0 0.00 0.00 0.00 54 1016.6
20260831163122 34 135 0.0 0.0 0.00 0.00 0.00 55 1016.6
20260831162120 33 157 0.0 0.0 0.00 0.00 0.00 56 1016.6
20260831161119 33 157 0.0 0.0 0.00 0.00 0.00 57 1016.6
20260831160119 33 157 0.0 0.0 0.00 0.00 0.00 60 1016.6
20260831155117 32 202 0.0 0.0 0.00 0.00 0.00 62 1016.6
20260831154116 32 202 0.0 0.0 0.00 0.00 0.00 63 1016.6
20260831153115 32 157 0.0 0.0 0.00 0.00 0.00 66 1016.6
20260831152114 31 157 0.0 0.0 0.00 0.00 0.00 67 1016.6
20260831151112 31 225 0.0 0.0 0.00 0.00 0.00 69 1016.6
20260831150111 30 157 0.0 0.0 0.00 0.00 0.00 70 1016.3
20260831145028 30 157 0.0 0.0 0.00 0.00 0.00 74 1016.3
20260831143945 29 157 0.0 0.0 0.00 0.00 0.00 75 1016.3
20260831142901 28 135 0.0 0.0 0.00 0.00 0.00 77 1016.3
20260831141901 28 157 0.0 0.0 0.00 0.00 0.00 79 1016.3
20260831140900 28 135 0.0 0.0 0.00 0.00 0.00 80 1016.3
20260831135858 27 112 0.0 0.0 0.00 0.00 0.00 81 1016.3
20260831134858 27 135 0.0 0.0 0.00 0.00 0.00 83 1015.9
20260831133856 26 90 0.0 0.0 0.00 0.00 0.00 84 1015.9
20260831132855 26 135 0.0 0.0 0.00 0.00 0.00 85 1015.9
20260831131855 26 112 0.0 0.0 0.00 0.00 0.00 85 1015.9
20260831130854 25 90 0.0 0.0 0.00 0.00 0.00 85 1015.9
20260831125853 25 112 0.0 0.0 0.00 0.00 0.00 85 1015.6
20260831124852 25 90 0.0 0.0 0.00 0.00 0.00 85 1015.6
20260831123850 25 90 0.0 0.0 0.00 0.00 0.00 85 1015.6
20260831122849 25 112 0.0 0.0 0.00 0.00 0.00 85 1015.2
20260831121847 25 112 0.0 0.0 0.00 0.00 0.00 84 1015.2
20260831120804 25 112 0.0 0.0 0.00 0.00 0.00 84 1015.2
20260831115719 25 112 0.0 0.0 0.00 0.00 0.00 84 1014.9
20260831114636 25 112 0.0 0.0 0.00 0.00 0.00 83 1015.2
20260831113635 25 112 0.0 0.0 0.00 0.00 0.00 83 1015.2
20260831112634 26 90 0.0 0.0 0.00 0.00 0.00 83 1015.2
20260831111633 26 90 0.0 0.0 0.00 0.00 0.00 83 1015.2
20260831110632 26 90 0.0 0.0 0.00 0.00 0.00 83 1015.2
20260831105631 26 112 0.0 0.0 0.00 0.00 0.00 83 1015.2
20260831104630 26 112 0.0 0.0 0.00 0.00 0.00 83 1015.2
20260831103628 26 112 0.0 0.0 0.00 0.00 0.00 82 1015.2
20260831102627 26 112 0.0 0.0 0.00 0.00 0.00 82 1015.2
20260831101543 26 112 0.0 0.0 0.00 0.00 0.00 82 1015.2
20260831100541 26 67 0.0 0.0 0.00 0.00 0.00 82 1015.2